CW8680 Weather Reports


time (UTC)temp
C
wind
direction
speed
KPH
gust
KPH
rain 1hr
cm
rain 24hr
cm
rain mn
cm
humidity
%
barometer
mb
20260504081504 6 240 3.2 0.0 0.00 0.00 0.00 63 1011.5
20260504070106 7 271 1.6 0.0 0.00 0.00 0.00 57 1011.6
20260504044548 6 248 1.6 0.0 0.00 0.00 0.00 58 1011.7
20260504043048 6 248 1.6 0.0 0.00 0.00 0.00 58 1011.7
20260504041546 6 248 1.6 0.0 0.00 0.00 0.00 57 1011.6
20260504040047 6 256 0.0 0.0 0.00 0.00 0.00 56 1011.5
20260504034542 7 256 1.6 0.0 0.00 0.00 0.00 54 1011.5
20260504033045 7 277 0.0 0.0 0.00 0.00 0.00 54 1011.4
20260504031553 7 249 0.0 0.0 0.00 0.00 0.00 54 1011.3
20260504030043 8 249 1.6 0.0 0.00 0.00 0.00 51 1011.4
20260504024539 8 259 0.0 0.0 0.00 0.00 0.00 50 1011.3
20260504023039 8 261 1.6 0.0 0.00 0.00 0.00 48 1011.3
20260504021539 8 249 1.6 0.0 0.00 0.00 0.00 47 1011.3
20260504020038 7 253 1.6 0.0 0.00 0.00 0.00 47 1011.4
20260504014541 8 254 0.0 0.0 0.00 0.00 0.00 48 1011.2
20260504013041 8 254 0.0 0.0 0.00 0.00 0.00 46 1011.0
20260504011539 8 259 0.0 0.0 0.00 0.00 0.00 45 1010.9
20260504010032 9 276 1.6 0.0 0.00 0.00 0.00 45 1010.7
20260504004534 9 248 1.6 0.0 0.00 0.00 0.00 45 1010.5
20260504003033 9 264 1.6 0.0 0.00 0.00 0.00 46 1010.2
20260504001536 9 266 1.6 0.0 0.00 0.00 0.00 45 1009.9
20260504000031 10 265 1.6 0.0 0.00 0.00 0.00 43 1009.9
20260503234539 10 285 1.6 0.0 0.00 0.00 0.00 42 1009.7
20260503233036 10 294 1.6 0.0 0.00 0.00 0.00 41 1009.6
20260503231533 11 302 4.8 0.0 0.00 0.00 0.00 39 1009.4
20260503230028 11 288 4.8 0.0 0.00 0.00 0.00 38 1009.4
20260503224528 11 307 6.4 0.0 0.00 0.00 0.00 38 1009.3
20260503223026 11 267 6.4 0.0 0.00 0.00 0.00 38 1009.2
20260503221532 11 338 9.7 0.0 0.00 0.00 0.00 38 1009.2
20260503220026 11 284 9.7 0.0 0.00 0.00 0.00 39 1009.2
20260503214525 11 288 8.0 0.0 0.00 0.00 0.00 39 1009.1
20260503213024 11 287 9.7 0.0 0.00 0.00 0.00 40 1009.1
20260503211522 11 337 8.0 0.0 0.00 0.00 0.00 40 1009.1
20260503210019 11 287 4.8 0.0 0.00 0.00 0.00 44 1009.1
20260503204520 11 319 8.0 0.0 0.00 0.00 0.00 44 1008.9
20260503203017 10 278 6.4 0.0 0.00 0.00 0.00 43 1009.0
20260503201515 10 113 11.3 0.0 0.00 0.00 0.00 44 1009.2
20260503200016 10 296 9.7 0.0 0.00 0.00 0.00 44 1008.9
20260503194514 10 252 9.7 0.0 0.00 0.00 0.00 44 1009.0
20260503193013 10 288 8.0 0.0 0.00 0.00 0.00 45 1008.9
20260503191512 10 334 12.9 0.0 0.00 0.00 0.00 42 1008.8
20260503190012 10 312 12.9 0.0 0.00 0.00 0.00 42 1008.8
20260503184516 10 289 11.3 0.0 0.00 0.00 0.00 43 1009.0
20260503183014 10 271 9.7 0.0 0.00 0.00 0.00 43 1009.0
20260503181510 10 286 9.7 0.0 0.00 0.00 0.00 43 1008.8
20260503180010 10 248 8.0 0.0 0.00 0.00 0.00 42 1008.8
20260503174507 10 314 9.7 0.0 0.00 0.00 0.00 44 1008.8
20260503173005 9 296 8.0 0.0 0.00 0.00 0.00 48 1009.0
20260503171505 10 282 8.0 0.0 0.00 0.00 0.00 52 1009.1